Marfa, TX

8:39 PM CDT on July 22, 2017 (GMT -0500)
Marfa Municipal

Weather History for KMRF - May, 2012

Change the Weather History Date:

Saturday, May 26, 2012

  Actual Average Record
Temperature  
Mean Temperature 75 °F -  
Max Temperature 91 °F 85 °F 93 °F (2001)
Min Temperature 59 °F 53 °F 42 °F (2015)
Cooling Degree Days 10    
Growing Degree Days 25 (Base 50)    
Moisture  
Dew Point 51 °F    
Average Humidity 49    
Maximum Humidity 77    
Minimum Humidity 22    
Precipitation  
Precipitation 0.06 in - - ()
Sea Level Pressure  
Sea Level Pressure 30.01 in    
Wind  
Wind Speed 13 mph (SSE)    
Max Wind Speed 30 mph    
Max Gust Speed 36 mph    
Visibility 10 miles    
Events Thunderstorm    
Averages and records for this station are not official NWS values.
T = Trace of Precipitation, MM = Missing Value Source: NWS Daily Summary

Daily Weather History Graph

Daily Weather History Graph

Search for Another Location

Airport or City:

Trip Planner

Search our weather history database for the weather conditions in past years. The results will help you decide how hot, cold, wet, or windy it might be!

Date:

Astronomy

May. 26, 2012 Rise Set
Actual Time 6:56 AM CDT 8:50 PM CDT
Civil Twilight 6:29 AM CDT 9:17 PM CDT
Nautical Twilight 5:56 AM CDT 9:50 PM CDT
Astronomical Twilight 5:22 AM CDT 10:24 PM CDT
Moon 11:50 AM CDT (5/26) 12:34 AM CDT (5/26)
Length of Visible Light 14h 48m
Length of Day
13h 54m
Waxing Crescent, 28% of the Moon is Illuminated
May 26
Waxing Crescent
May 28
First Quarter
Jun 4
Full
Jun 11
Last Quarter
Jun 19
New

Hourly Weather History & Observations

Time (CDT) Temp. Heat Index Dew Point Humidity Pressure Visibility Wind Dir Wind Speed Gust Speed Precip Events Conditions
12:15 AM 69.8 °F - 46.4 °F 43% 30.05 in 10.0 mi SSE 17.3 mph 20.7 mph N/A   Clear
12:35 AM 69.8 °F - 46.4 °F 43% 30.06 in 10.0 mi SSE 13.8 mph 20.7 mph N/A   Clear
12:55 AM 69.8 °F - 46.4 °F 43% 30.06 in 10.0 mi SE 16.1 mph - N/A   Clear
1:15 AM 69.8 °F - 46.4 °F 43% 30.06 in 10.0 mi SSE 15.0 mph 20.7 mph N/A   Clear
1:35 AM 68.0 °F - 46.4 °F 46% 30.06 in 10.0 mi SSE 12.7 mph - N/A   Clear
1:55 AM 68.0 °F - 46.4 °F 46% 30.06 in 10.0 mi SE 13.8 mph 19.6 mph N/A   Clear
2:15 AM 66.2 °F - 46.4 °F 49% 30.06 in 10.0 mi SSE 9.2 mph - N/A   Clear
2:35 AM 66.2 °F - 48.2 °F 52% 30.06 in 10.0 mi SE 8.1 mph - N/A   Clear
2:55 AM 66.2 °F - 48.2 °F 52% 30.05 in 10.0 mi SSE 9.2 mph - N/A   Clear
3:15 AM 66.2 °F - 48.2 °F 52% 30.04 in 10.0 mi SE 12.7 mph - N/A   Clear
3:35 AM 64.4 °F - 48.2 °F 56% 30.05 in 10.0 mi SSE 6.9 mph - N/A   Clear
3:55 AM 64.4 °F - 48.2 °F 56% 30.05 in 10.0 mi SE 5.8 mph - N/A   Clear
4:15 AM 60.8 °F - 48.2 °F 63% 30.05 in 10.0 mi ESE 3.5 mph - N/A   Clear
4:35 AM 60.8 °F - 46.4 °F 59% 30.05 in 10.0 mi Calm Calm - N/A   Clear
4:55 AM 60.8 °F - 46.4 °F 59% 30.05 in 10.0 mi Calm Calm - N/A   Clear
5:15 AM 59.0 °F - 46.4 °F 63% 30.05 in 10.0 mi Calm Calm - N/A   Clear
5:35 AM 62.6 °F - 48.2 °F 59% 30.04 in 10.0 mi SSE 4.6 mph - N/A   Clear
5:55 AM 60.8 °F - 48.2 °F 63% 30.04 in 10.0 mi SSE 6.9 mph - N/A   Clear
6:15 AM 60.8 °F - 48.2 °F 63% 30.04 in 10.0 mi Calm Calm - N/A   Clear
6:35 AM 60.8 °F - 50.0 °F 68% 30.04 in 10.0 mi SE 9.2 mph - N/A   Clear
6:55 AM 60.8 °F - 50.0 °F 68% 30.04 in 10.0 mi SE 9.2 mph - N/A   Clear
7:15 AM 59.0 °F - 48.2 °F 67% 30.05 in 10.0 mi SE 9.2 mph - N/A   Clear
7:35 AM 60.8 °F - 50.0 °F 68% 30.06 in 10.0 mi SE 6.9 mph - N/A   Clear
7:55 AM 62.6 °F - 51.8 °F 68% 30.06 in 10.0 mi SE 8.1 mph - N/A   Clear
8:15 AM 64.4 °F - 51.8 °F 64% 30.06 in 10.0 mi SSE 10.4 mph - N/A   Clear
8:35 AM 66.2 °F - 51.8 °F 60% 30.06 in 10.0 mi SSE 11.5 mph - N/A   Clear
8:55 AM 69.8 °F - 51.8 °F 53% 30.07 in 10.0 mi SSE 11.5 mph - N/A   Clear
9:15 AM 71.6 °F - 51.8 °F 50% 30.07 in 10.0 mi SSE 11.5 mph - N/A   Clear
9:35 AM 73.4 °F - 51.8 °F 47% 30.07 in 10.0 mi SSE 12.7 mph 18.4 mph N/A   Clear
9:55 AM 73.4 °F - 51.8 °F 47% 30.07 in 10.0 mi South 16.1 mph 19.6 mph N/A   Clear
10:15 AM 75.2 °F - 51.8 °F 44% 30.08 in 10.0 mi South 13.8 mph 23.0 mph N/A   Clear
10:35 AM 75.2 °F - 51.8 °F 44% 30.07 in 10.0 mi South 23.0 mph - N/A   Clear
10:55 AM 78.8 °F - 51.8 °F 39% 30.07 in 10.0 mi South 17.3 mph - N/A   Clear
11:15 AM 78.8 °F - 51.8 °F 39% 30.07 in 10.0 mi South 16.1 mph 23.0 mph N/A   Clear
11:35 AM 78.8 °F - 51.8 °F 39% 30.06 in 10.0 mi South 17.3 mph 24.2 mph N/A   Clear
11:55 AM 80.6 °F 80.3 °F 53.6 °F 39% 30.06 in 10.0 mi South 16.1 mph 24.2 mph N/A   Clear
12:15 PM 82.4 °F - 51.8 °F 35% 30.05 in 10.0 mi South 20.7 mph 25.3 mph N/A   Clear
12:35 PM 82.4 °F 81.4 °F 53.6 °F 37% 30.05 in 10.0 mi South 18.4 mph 21.9 mph N/A   Clear
12:55 PM 82.4 °F 81.4 °F 53.6 °F 37% 30.05 in 10.0 mi South 16.1 mph 25.3 mph N/A   Clear
1:15 PM 84.2 °F - 51.8 °F 33% 30.04 in 10.0 mi South 18.4 mph 25.3 mph N/A   Clear
1:35 PM 84.2 °F - 51.8 °F 33% 30.04 in 10.0 mi South 12.7 mph 21.9 mph N/A   Clear
1:55 PM 84.2 °F - 51.8 °F 33% 30.03 in 10.0 mi SSE 15.0 mph 23.0 mph N/A   Clear
2:15 PM 84.2 °F - 50.0 °F 30% 30.02 in 10.0 mi SSE 9.2 mph - N/A   Clear
2:35 PM 87.8 °F - 50.0 °F 27% 30.01 in 10.0 mi SSE 13.8 mph 20.7 mph N/A   Clear
2:55 PM 86.0 °F - 48.2 °F 27% 30.00 in 10.0 mi South 13.8 mph 21.9 mph N/A   Clear
3:15 PM 89.6 °F - 48.2 °F 24% 29.99 in 10.0 mi WSW 12.7 mph 20.7 mph N/A   Partly Cloudy
3:35 PM 89.6 °F - 46.4 °F 22% 29.98 in 10.0 mi SSE 15.0 mph 21.9 mph N/A   Scattered Clouds
3:55 PM 91.4 °F - 48.2 °F 23% 29.98 in 10.0 mi South 15.0 mph 26.5 mph N/A   Scattered Clouds
4:15 PM 89.6 °F - 48.2 °F 24% 29.97 in 10.0 mi South 18.4 mph 23.0 mph N/A   Mostly Cloudy
4:35 PM 89.6 °F - 48.2 °F 24% 29.96 in 10.0 mi South 16.1 mph 21.9 mph N/A   Scattered Clouds
4:55 PM 87.8 °F - 50.0 °F 27% 29.96 in 10.0 mi SE 16.1 mph 27.6 mph N/A   Partly Cloudy
5:15 PM 86.0 °F - 50.0 °F 29% 29.96 in 10.0 mi SSE 16.1 mph 23.0 mph N/A Thunderstorm Thunderstorm
5:35 PM 82.4 °F 81.4 °F 53.6 °F 37% 29.95 in 10.0 mi East 8.1 mph - N/A   Mostly Cloudy
5:55 PM 84.2 °F - 51.8 °F 33% 29.94 in 10.0 mi ESE 10.4 mph - N/A   Mostly Cloudy
6:15 PM 80.6 °F 80.8 °F 57.2 °F 45% 29.94 in 10.0 mi SE 21.9 mph 29.9 mph 0.01 in   Mostly Cloudy
6:35 PM 75.2 °F - 59.0 °F 57% 29.94 in 10.0 mi SE 20.7 mph 26.5 mph 0.02 in   Mostly Cloudy
6:55 PM 78.8 °F - 57.2 °F 47% 29.93 in 10.0 mi ESE 20.7 mph 25.3 mph 0.02 in   Scattered Clouds
7:15 PM 78.8 °F - 57.2 °F 47% 29.93 in 10.0 mi ESE 18.4 mph 26.5 mph N/A   Partly Cloudy
7:35 PM 77.0 °F - 57.2 °F 50% 29.93 in 10.0 mi ESE 24.2 mph 28.8 mph N/A   Clear
7:55 PM 75.2 °F - 57.2 °F 53% 29.92 in 10.0 mi ESE 23.0 mph 29.9 mph N/A   Clear
8:15 PM 75.2 °F - 57.2 °F 53% 29.93 in 10.0 mi ESE 20.7 mph 25.3 mph N/A   Clear
8:35 PM 75.2 °F - 57.2 °F 53% 29.92 in 10.0 mi ESE 21.9 mph 27.6 mph N/A   Clear
8:55 PM 75.2 °F - 57.2 °F 53% 29.92 in 10.0 mi ESE 20.7 mph 26.5 mph N/A   Clear
9:15 PM 75.2 °F - 57.2 °F 53% 29.93 in 10.0 mi ESE 19.6 mph - N/A Thunderstorm Clear
9:35 PM 73.4 °F - 60.8 °F 65% 30.00 in 10.0 mi West 17.3 mph 25.3 mph N/A Thunderstorm Thunderstorm
9:55 PM 66.2 °F - 55.4 °F 68% 29.99 in 10.0 mi South 21.9 mph 26.5 mph 0.03 in Thunderstorm Thunderstorm
10:15 PM 66.2 °F - 55.4 °F 68% 29.96 in 10.0 mi SSE 23.0 mph 32.2 mph N/A   Mostly Cloudy
10:35 PM 64.4 °F - 57.2 °F 77% 29.91 in 10.0 mi SE 29.9 mph 35.7 mph 0.01 in   Mostly Cloudy
10:55 PM 68.0 °F - 53.6 °F 60% 29.92 in 10.0 mi ESE 18.4 mph 24.2 mph 0.01 in   Mostly Cloudy
11:15 PM 66.2 °F - 55.4 °F 68% 29.95 in 10.0 mi ESE 16.1 mph 23.0 mph N/A   Clear
11:35 PM 66.2 °F - 55.4 °F 68% 29.97 in 10.0 mi North 10.4 mph - N/A   Clear
11:55 PM 68.0 °F - 55.4 °F 64% 29.98 in 10.0 mi NNE 4.6 mph - N/A   Clear